Tracking 27124 objects as of 31-Mar-2023
HD Live streaming from Space Station
objects crossing your sky now

ATLAS CENTAUR R/B

Track ATLAS CENTAUR R/B now!


NORAD ID: 8621
Int'l Code: 1976-010B
Perigee: 597.1 km
Apogee: 36,508.8 km
Inclination: 21.1 °
Period: 652.7 minutes
Semi major axis: 24923 km
RCS: 16.4818 m2 (large)
Launch date: January 29, 1976
Source: United States (US)
Launch site: AIR FORCE EASTERN TEST RANGE (AFETR)

Note: This is a ROCKET BODY
Your satellite tracking list
Your tracking list is empty




NASA's NSSDC Master Catalog

Two Line Element Set (TLE):
1 08621U 76010B   23089.57715286  .00000037  00000-0  23135-2 0  9990
2 08621  21.1075 148.1849 7204251 253.0111  87.1744  2.20636253259628
Source of the keplerian elements: AFSPC